QPF
0.03 0.04 0.05 0.05 0.05 0.06 0.04 0.02 0.02 0.02 0.02 0.02 0.01 0.01 0.00 0.01 0.01 0.01 0.02 0.02 0.02 0.03 0.04 0.02 0.03 0.03 0.03 0.05 0.11 0.14 0.09 0.07 0.06 0.06 0.05 0.05 0.05 0.08 0.09 0.14 0.14 0.07 0.07
0.02 0.03 0.06 0.08 0.04 0.05 0.04 0.02 0.02 0.02 0.02 0.02 0.01 0.00 0.00 0.01 0.01 0.01 0.02 0.02 0.02 0.03 0.04 0.04 0.04 0.04 0.04 0.04 0.07 0.11 0.10 0.08 0.08 0.07 0.08 0.07 0.07 0.08 0.09 0.13 0.22 0.12 0.09
0.02 0.03 0.05 0.08 0.05 0.05 0.03 0.02 0.02 0.02 0.03 0.02 0.01 0.01 0.01 0.01 0.02 0.02 0.02 0.02 0.02 0.03 0.04 0.06 0.06 0.05 0.05 0.05 0.06 0.07 0.10 0.10 0.10 0.09 0.08 0.06 0.07 0.09 0.09 0.10 0.17 0.19 0.12
0.03 0.04 0.04 0.05 0.04 0.04 0.03 0.02 0.02 0.02 0.03 0.02 0.01 0.01 0.01 0.02 0.03 0.03 0.03 0.03 0.03 0.03 0.03 0.04 0.06 0.05 0.05 0.06 0.05 0.04 0.05 0.06 0.09 0.10 0.05 0.04 0.05 0.07 0.09 0.09 0.10 0.11 0.11
0.02 0.03 0.04 0.04 0.04 0.04 0.04 0.02 0.02 0.03 0.03 0.03 0.02 0.02 0.02 0.02 0.02 0.02 0.03 0.03 0.03 0.03 0.03 0.03 0.04 0.06 0.05 0.05 0.06 0.05 0.05 0.06 0.08 0.09 0.06 0.05 0.05 0.06 0.09 0.09 0.09 0.09 0.07
0.02 0.04 0.06 0.06 0.05 0.05 0.05 0.03 0.03 0.03 0.02 0.02 0.02 0.02 0.02 0.03 0.02 0.02 0.03 0.04 0.04 0.03 0.04 0.04 0.04 0.04 0.05 0.04 0.05 0.06 0.07 0.07 0.07 0.06 0.07 0.06 0.05 0.07 0.09 0.08 0.09 0.10 0.08
0.02 0.06 0.11 0.10 0.08 0.07 0.07 0.08 0.05 0.03 0.02 0.02 0.02 0.02 0.02 0.03 0.03 0.02 0.02 0.03 0.04 0.04 0.05 0.05 0.04 0.04 0.04 0.05 0.05 0.05 0.05 0.07 0.07 0.06 0.07 0.07 0.06 0.07 0.08 0.08 0.08 0.09 0.13
0.03 0.08 0.15 0.19 0.18 0.13 0.09 0.08 0.07 0.03 0.02 0.03 0.03 0.03 0.03 0.04 0.03 0.03 0.03 0.03 0.03 0.04 0.06 0.07 0.06 0.05 0.04 0.04 0.05 0.06 0.06 0.06 0.06 0.07 0.06 0.06 0.06 0.07 0.09 0.09 0.09 0.09 0.11
0.06 0.08 0.12 0.17 0.16 0.14 0.09 0.06 0.07 0.06 0.05 0.06 0.06 0.05 0.04 0.04 0.04 0.04 0.04 0.04 0.04 0.03 0.04 0.06 0.07 0.05 0.05 0.05 0.06 0.06 0.06 0.07 0.06 0.05 0.05 0.04 0.05 0.07 0.09 0.09 0.10 0.11 0.09
0.08 0.05 0.05 0.09 0.08 0.06 0.06 0.06 0.06 0.07 0.06 0.05 0.06 0.06 0.04 0.04 0.04 0.04 0.04 0.05 0.05 0.05 0.04 0.04 0.05 0.06 0.06 0.06 0.06 0.06 0.05 0.05 0.07 0.07 0.05 0.03 0.05 0.07 0.08 0.09 0.09 0.10 0.10
0.03 0.02 0.03 0.04 0.04 0.02 0.02 0.03 0.04 0.05 0.05 0.05 0.05 0.04 0.03 0.03 0.03 0.05 0.06 0.06 0.06 0.06 0.05 0.04 0.04 0.05 0.05 0.05 0.05 0.06 0.06 0.05 0.06 0.05 0.04 0.04 0.06 0.06 0.07 0.07 0.07 0.08 0.09
0.02 0.02 0.03 0.04 0.04 0.03 0.02 0.02 0.03 0.04 0.05 0.05 0.05 0.04 0.03 0.04 0.05 0.06 0.08 0.09 0.08 0.07 0.07 0.07 0.06 0.06 0.06 0.06 0.05 0.06 0.04 0.04 0.06 0.05 0.04 0.05 0.05 0.04 0.05 0.05 0.06 0.07 0.08
0.02 0.02 0.03 0.04 0.03 0.03 0.02 0.02 0.03 0.05 0.05 0.05 0.04 0.04 0.04 0.04 0.04 0.05 0.06 0.07 0.08 0.09 0.10 0.12 0.10 0.08 0.07 0.05 0.03 0.02 0.02 0.02 0.04 0.04 0.04 0.05 0.04 0.05 0.05 0.05 0.06 0.07 0.07
0.02 0.02 0.06 0.08 0.05 0.03 0.03 0.04 0.04 0.04 0.05 0.05 0.04 0.03 0.03 0.03 0.03 0.03 0.04 0.06 0.07 0.09 0.12 0.15 0.10 0.07 0.06 0.05 0.03 0.02 0.02 0.03 0.04 0.03 0.02 0.04 0.05 0.06 0.06 0.05 0.07 0.08 0.09
0.04 0.04 0.09 0.11 0.10 0.07 0.04 0.05 0.06 0.04 0.03 0.03 0.03 0.03 0.03 0.03 0.02 0.03 0.03 0.04 0.05 0.08 0.11 0.13 0.09 0.06 0.05 0.05 0.05 0.04 0.03 0.03 0.02 0.02 0.02 0.03 0.03 0.04 0.07 0.07 0.08 0.09 0.10
0.07 0.08 0.11 0.10 0.09 0.09 0.06 0.05 0.09 0.08 0.04 0.02 0.02 0.02 0.02 0.02 0.03 0.04 0.04 0.04 0.04 0.05 0.08 0.11 0.09 0.06 0.05 0.05 0.06 0.05 0.04 0.04 0.03 0.02 0.02 0.02 0.04 0.05 0.06 0.07 0.08 0.07 0.09
0.07 0.08 0.08 0.07 0.07 0.09 0.06 0.09 0.14 0.11 0.08 0.04 0.04 0.04 0.02 0.02 0.03 0.04 0.03 0.04 0.04 0.05 0.06 0.09 0.10 0.07 0.05 0.05 0.04 0.04 0.04 0.04 0.04 0.02 0.03 0.02 0.02 0.04 0.04 0.05 0.06 0.06 0.06
0.05 0.07 0.08 0.08 0.09 0.11 0.10 0.09 0.07 0.07 0.08 0.07 0.05 0.04 0.03 0.02 0.04 0.04 0.04 0.04 0.04 0.06 0.07 0.07 0.06 0.07 0.05 0.05 0.05 0.04 0.03 0.02 0.03 0.03 0.02 0.02 0.01 0.02 0.02 0.03 0.03 0.05 0.05
0.04 0.06 0.08 0.07 0.09 0.13 0.12 0.08 0.07 0.08 0.08 0.07 0.07 0.06 0.04 0.04 0.04 0.04 0.04 0.04 0.05 0.05 0.06 0.05 0.04 0.04 0.03 0.03 0.03 0.03 0.03 0.02 0.01 0.02 0.01 0.01 0.00 0.01 0.01 0.02 0.03 0.03 0.04
0.05 0.08 0.08 0.06 0.07 0.12 0.14 0.11 0.08 0.07 0.07 0.07 0.08 0.09 0.07 0.06 0.05 0.05 0.04 0.04 0.05 0.05 0.05 0.05 0.04 0.03 0.03 0.03 0.03 0.02 0.02 0.01 0.00 0.00 0.01 0.00 0.00 0.01 0.01 0.01 0.02 0.02 0.02
0.05 0.06 0.06 0.07 0.07 0.10 0.12 0.10 0.06 0.05 0.07 0.08 0.07 0.07 0.09 0.08 0.06 0.06 0.06 0.07 0.07 0.07 0.06 0.06 0.04 0.03 0.04 0.04 0.03 0.02 0.01 0.00 0.00 0.00 0.01 0.01 0.01 0.01 0.01 0.01 0.01 0.01 0.01
0.05 0.05 0.06 0.08 0.08 0.07 0.08 0.08 0.07 0.06 0.06 0.07 0.06 0.06 0.08 0.08 0.07 0.08 0.08 0.07 0.07 0.08 0.08 0.07 0.05 0.04 0.04 0.04 0.03 0.02 0.01 0.01 0.00 0.01 0.01 0.01 0.01 0.01 0.01 0.01 0.01 0.01 0.01
0.05 0.06 0.07 0.08 0.10 0.09 0.08 0.09 0.07 0.05 0.04 0.04 0.05 0.06 0.08 0.10 0.09 0.08 0.07 0.08 0.07 0.08 0.08 0.06 0.06 0.05 0.05 0.04 0.04 0.03 0.03 0.01 0.01 0.01 0.01 0.01 0.01 0.01 0.01 0.00 0.01 0.01 0.01
0.04 0.06 0.08 0.11 0.14 0.13 0.08 0.07 0.06 0.04 0.05 0.05 0.04 0.05 0.07 0.09 0.09 0.09 0.09 0.08 0.06 0.07 0.07 0.06 0.06 0.05 0.04 0.03 0.02 0.02 0.01 0.01 0.01 0.01 0.00 0.01 0.01 0.01 0.01 0.01 0.01 0.01 0.01
0.04 0.05 0.05 0.05 0.08 0.06 0.05 0.05 0.05 0.05 0.05 0.04 0.03 0.03 0.04 0.05 0.06 0.07 0.08 0.07 0.05 0.06 0.05 0.05 0.06 0.06 0.04 0.03 0.02 0.02 0.02 0.01 0.01 0.01 0.00 0.00 0.00 0.00 0.01 0.01 0.01 0.01 0.01
0.04 0.04 0.04 0.05 0.07 0.07 0.07 0.08 0.08 0.07 0.07 0.07 0.05 0.04 0.03 0.03 0.05 0.06 0.06 0.06 0.05 0.05 0.04 0.04 0.04 0.05 0.06 0.05 0.03 0.03 0.02 0.02 0.01 0.01 0.01 0.00 0.00 0.00 0.01 0.01 0.02 0.02 0.01
MSLP
1010.69 1010.26 1009.99 1009.90 1009.94 1010.04 1010.15 1010.20 1010.20 1010.14 1010.09 1010.10 1010.22 1010.45 1010.80 1011.22 1011.66 1012.06 1012.39 1012.64 1012.83 1012.98 1013.13 1013.32 1013.54 1013.78 1014.03 1014.25 1014.44 1014.57 1014.66 1014.73 1014.80 1014.89 1015.02 1015.18 1015.37 1015.57 1015.76 1015.93 1016.09 1016.23 1016.37
1010.85 1010.49 1010.26 1010.17 1010.20 1010.28 1010.35 1010.39 1010.37 1010.32 1010.28 1010.30 1010.43 1010.67 1011.01 1011.40 1011.80 1012.16 1012.44 1012.65 1012.80 1012.93 1013.08 1013.26 1013.48 1013.72 1013.97 1014.20 1014.38 1014.50 1014.59 1014.66 1014.73 1014.83 1014.97 1015.14 1015.34 1015.55 1015.75 1015.94 1016.12 1016.28 1016.43
1010.84 1010.56 1010.38 1010.32 1010.36 1010.45 1010.53 1010.57 1010.56 1010.52 1010.50 1010.53 1010.65 1010.87 1011.17 1011.51 1011.84 1012.14 1012.36 1012.53 1012.65 1012.77 1012.90 1013.09 1013.32 1013.57 1013.83 1014.06 1014.25 1014.39 1014.49 1014.58 1014.67 1014.79 1014.95 1015.14 1015.35 1015.56 1015.77 1015.96 1016.13 1016.30 1016.46
1010.71 1010.49 1010.38 1010.37 1010.45 1010.57 1010.68 1010.74 1010.75 1010.73 1010.72 1010.75 1010.85 1011.03 1011.27 1011.54 1011.80 1012.03 1012.19 1012.32 1012.42 1012.53 1012.67 1012.87 1013.11 1013.38 1013.65 1013.89 1014.09 1014.25 1014.39 1014.51 1014.64 1014.80 1014.99 1015.19 1015.41 1015.61 1015.80 1015.97 1016.12 1016.28 1016.43
1010.56 1010.40 1010.34 1010.39 1010.52 1010.68 1010.82 1010.90 1010.93 1010.91 1010.89 1010.90 1010.97 1011.10 1011.28 1011.49 1011.69 1011.85 1011.97 1012.07 1012.16 1012.28 1012.44 1012.65 1012.90 1013.18 1013.46 1013.71 1013.93 1014.12 1014.29 1014.45 1014.64 1014.84 1015.05 1015.28 1015.48 1015.67 1015.82 1015.94 1016.06 1016.17 1016.31
1010.50 1010.37 1010.36 1010.46 1010.62 1010.81 1010.96 1011.04 1011.06 1011.03 1010.98 1010.96 1010.99 1011.08 1011.21 1011.36 1011.51 1011.64 1011.74 1011.83 1011.92 1012.06 1012.23 1012.46 1012.72 1013.01 1013.29 1013.54 1013.77 1013.98 1014.18 1014.39 1014.62 1014.86 1015.11 1015.34 1015.53 1015.67 1015.77 1015.83 1015.89 1015.97 1016.08
1010.62 1010.51 1010.52 1010.63 1010.80 1010.98 1011.10 1011.16 1011.13 1011.06 1010.97 1010.90 1010.89 1010.94 1011.03 1011.15 1011.27 1011.39 1011.49 1011.59 1011.71 1011.86 1012.06 1012.30 1012.57 1012.85 1013.12 1013.36 1013.59 1013.81 1014.04 1014.28 1014.55 1014.82 1015.08 1015.31 1015.47 1015.57 1015.60 1015.60 1015.60 1015.63 1015.72
1010.97 1010.83 1010.83 1010.93 1011.07 1011.19 1011.25 1011.23 1011.13 1010.99 1010.84 1010.73 1010.67 1010.69 1010.76 1010.87 1010.98 1011.10 1011.21 1011.33 1011.47 1011.65 1011.87 1012.12 1012.39 1012.66 1012.92 1013.15 1013.37 1013.59 1013.82 1014.08 1014.36 1014.65 1014.92 1015.14 1015.27 1015.33 1015.31 1015.25 1015.19 1015.18 1015.26
1011.49 1011.33 1011.29 1011.34 1011.41 1011.44 1011.40 1011.26 1011.06 1010.83 1010.62 1010.45 1010.37 1010.36 1010.42 1010.51 1010.63 1010.75 1010.87 1011.01 1011.17 1011.37 1011.61 1011.87 1012.15 1012.41 1012.66 1012.87 1013.07 1013.28 1013.50 1013.76 1014.04 1014.34 1014.60 1014.80 1014.92 1014.94 1014.88 1014.78 1014.69 1014.67 1014.74
1012.09 1011.90 1011.81 1011.79 1011.76 1011.68 1011.51 1011.25 1010.94 1010.62 1010.34 1010.13 1010.01 1009.99 1010.03 1010.11 1010.21 1010.32 1010.43 1010.57 1010.74 1010.96 1011.22 1011.51 1011.80 1012.07 1012.31 1012.52 1012.70 1012.89 1013.10 1013.34 1013.61 1013.89 1014.14 1014.33 1014.43 1014.43 1014.36 1014.25 1014.16 1014.14 1014.22
1012.66 1012.44 1012.31 1012.21 1012.08 1011.87 1011.57 1011.20 1010.79 1010.39 1010.05 1009.80 1009.66 1009.61 1009.62 1009.66 1009.72 1009.80 1009.88 1010.00 1010.17 1010.40 1010.69 1011.00 1011.33 1011.63 1011.89 1012.10 1012.29 1012.46 1012.64 1012.85 1013.10 1013.35 1013.58 1013.76 1013.86 1013.88 1013.82 1013.73 1013.66 1013.66 1013.77
1013.09 1012.86 1012.70 1012.53 1012.30 1011.98 1011.58 1011.11 1010.62 1010.16 1009.79 1009.52 1009.34 1009.25 1009.22 1009.21 1009.20 1009.21 1009.24 1009.32 1009.48 1009.71 1010.03 1010.39 1010.77 1011.12 1011.42 1011.67 1011.86 1012.02 1012.18 1012.36 1012.57 1012.79 1013.00 1013.17 1013.28 1013.32 1013.30 1013.25 1013.22 1013.26 1013.40
1013.34 1013.12 1012.93 1012.70 1012.41 1012.01 1011.53 1011.00 1010.46 1009.98 1009.59 1009.29 1009.09 1008.96 1008.86 1008.76 1008.67 1008.58 1008.54 1008.57 1008.70 1008.95 1009.30 1009.72 1010.17 1010.59 1010.96 1011.25 1011.46 1011.63 1011.77 1011.91 1012.08 1012.26 1012.44 1012.61 1012.73 1012.80 1012.83 1012.84 1012.86 1012.94 1013.11
1013.41 1013.21 1013.00 1012.74 1012.40 1011.96 1011.44 1010.88 1010.34 1009.85 1009.46 1009.15 1008.92 1008.73 1008.54 1008.35 1008.15 1007.97 1007.84 1007.81 1007.92 1008.18 1008.58 1009.06 1009.59 1010.09 1010.53 1010.87 1011.12 1011.29 1011.41 1011.52 1011.65 1011.79 1011.94 1012.09 1012.23 1012.33 1012.40 1012.47 1012.54 1012.66 1012.85
1013.36 1013.17 1012.96 1012.68 1012.32 1011.85 1011.32 1010.77 1010.24 1009.78 1009.39 1009.08 1008.81 1008.55 1008.28 1007.99 1007.68 1007.40 1007.20 1007.13 1007.22 1007.50 1007.93 1008.48 1009.08 1009.66 1010.16 1010.55 1010.83 1011.00 1011.11 1011.19 1011.27 1011.38 1011.50 1011.64 1011.77 1011.89 1012.00 1012.10 1012.22 1012.36 1012.55
1013.29 1013.10 1012.88 1012.59 1012.21 1011.74 1011.23 1010.70 1010.20 1009.76 1009.38 1009.05 1008.74 1008.42 1008.06 1007.68 1007.28 1006.93 1006.67 1006.57 1006.66 1006.95 1007.42 1008.01 1008.66 1009.29 1009.83 1010.25 1010.55 1010.73 1010.83 1010.89 1010.93 1011.00 1011.09 1011.21 1011.33 1011.45 1011.58 1011.70 1011.83 1011.98 1012.17
1013.27 1013.07 1012.84 1012.52 1012.13 1011.67 1011.17 1010.67 1010.20 1009.78 1009.40 1009.05 1008.69 1008.31 1007.88 1007.42 1006.96 1006.56 1006.27 1006.16 1006.25 1006.56 1007.04 1007.65 1008.31 1008.95 1009.51 1009.94 1010.24 1010.42 1010.52 1010.56 1010.59 1010.64 1010.70 1010.79 1010.89 1011.01 1011.12 1011.24 1011.36 1011.50 1011.66
1013.37 1013.15 1012.88 1012.54 1012.13 1011.67 1011.19 1010.71 1010.26 1009.84 1009.45 1009.06 1008.66 1008.21 1007.72 1007.22 1006.72 1006.30 1006.01 1005.90 1006.00 1006.30 1006.78 1007.37 1008.01 1008.62 1009.16 1009.57 1009.86 1010.04 1010.14 1010.19 1010.23 1010.27 1010.32 1010.39 1010.47 1010.56 1010.64 1010.73 1010.83 1010.94 1011.07
1013.61 1013.35 1013.04 1012.66 1012.24 1011.77 1011.29 1010.83 1010.38 1009.95 1009.53 1009.10 1008.64 1008.14 1007.61 1007.07 1006.57 1006.15 1005.88 1005.78 1005.88 1006.16 1006.60 1007.14 1007.72 1008.27 1008.75 1009.13 1009.40 1009.59 1009.71 1009.79 1009.85 1009.91 1009.97 1010.04 1010.10 1010.15 1010.19 1010.24 1010.29 1010.37 1010.47
1013.98 1013.67 1013.31 1012.89 1012.44 1011.97 1011.49 1011.02 1010.57 1010.12 1009.67 1009.19 1008.68 1008.13 1007.57 1007.01 1006.51 1006.11 1005.85 1005.76 1005.85 1006.10 1006.48 1006.93 1007.41 1007.87 1008.28 1008.62 1008.88 1009.08 1009.25 1009.38 1009.50 1009.60 1009.70 1009.77 1009.82 1009.84 1009.84 1009.84 1009.84 1009.88 1009.94
1014.41 1014.06 1013.65 1013.20 1012.73 1012.24 1011.77 1011.30 1010.84 1010.37 1009.89 1009.36 1008.80 1008.21 1007.61 1007.04 1006.54 1006.15 1005.91 1005.82 1005.88 1006.07 1006.37 1006.72 1007.09 1007.46 1007.79 1008.08 1008.34 1008.58 1008.81 1009.02 1009.22 1009.40 1009.54 1009.63 1009.68 1009.68 1009.65 1009.60 1009.56 1009.55 1009.58
1014.87 1014.48 1014.04 1013.56 1013.07 1012.58 1012.11 1011.65 1011.19 1010.71 1010.19 1009.62 1009.02 1008.38 1007.76 1007.17 1006.67 1006.28 1006.03 1005.92 1005.94 1006.06 1006.27 1006.51 1006.78 1007.05 1007.32 1007.59 1007.86 1008.15 1008.45 1008.76 1009.06 1009.31 1009.52 1009.65 1009.71 1009.69 1009.64 1009.55 1009.47 1009.43 1009.44
1015.31 1014.89 1014.41 1013.91 1013.42 1012.94 1012.49 1012.05 1011.59 1011.11 1010.57 1009.98 1009.33 1008.66 1008.00 1007.39 1006.86 1006.45 1006.18 1006.04 1006.00 1006.06 1006.17 1006.33 1006.50 1006.70 1006.93 1007.19 1007.50 1007.85 1008.23 1008.64 1009.02 1009.36 1009.63 1009.80 1009.88 1009.86 1009.79 1009.69 1009.59 1009.52 1009.51
1015.70 1015.25 1014.75 1014.24 1013.75 1013.29 1012.86 1012.44 1012.01 1011.54 1010.99 1010.38 1009.70 1008.99 1008.29 1007.65 1007.09 1006.64 1006.33 1006.14 1006.05 1006.04 1006.09 1006.17 1006.29 1006.46 1006.67 1006.94 1007.29 1007.70 1008.16 1008.64 1009.10 1009.50 1009.82 1010.02 1010.12 1010.12 1010.05 1009.94 1009.83 1009.76 1009.74
1016.02 1015.55 1015.03 1014.51 1014.02 1013.58 1013.18 1012.79 1012.39 1011.93 1011.39 1010.76 1010.06 1009.32 1008.58 1007.88 1007.28 1006.79 1006.43 1006.20 1006.06 1006.01 1006.01 1006.07 1006.17 1006.32 1006.55 1006.84 1007.23 1007.68 1008.20 1008.72 1009.23 1009.67 1010.01 1010.24 1010.35 1010.36 1010.30 1010.21 1010.12 1010.06 1010.04
1016.28 1015.78 1015.24 1014.71 1014.22 1013.79 1013.41 1013.05 1012.67 1012.22 1011.69 1011.05 1010.33 1009.56 1008.77 1008.04 1007.38 1006.85 1006.45 1006.18 1006.02 1005.95 1005.95 1006.01 1006.13 1006.30 1006.56 1006.89 1007.30 1007.78 1008.30 1008.84 1009.35 1009.79 1010.13 1010.36 1010.48 1010.51 1010.48 1010.41 1010.34 1010.30 1010.30
Thickness
5789 5790 5788 5786 5783 5780 5778 5777 5776 5776 5775 5774 5774 5773 5771 5769 5768 5767 5766 5764 5763 5761 5760 5759 5757 5756 5755 5754 5752 5751 5750 5749 5749 5748 5747 5747 5746 5745 5744 5743 5742 5741 5740
5793 5790 5788 5784 5782 5778 5776 5774 5774 5773 5772 5771 5770 5769 5768 5766 5764 5763 5762 5761 5759 5758 5757 5756 5754 5753 5752 5751 5750 5748 5748 5747 5746 5745 5745 5744 5743 5743 5742 5741 5740 5739 5738
5792 5789 5786 5783 5779 5776 5774 5772 5771 5770 5768 5767 5766 5765 5764 5762 5761 5759 5758 5757 5756 5755 5754 5753 5752 5750 5749 5748 5747 5746 5745 5744 5743 5743 5742 5741 5741 5740 5740 5739 5738 5737 5736
5789 5786 5784 5781 5777 5774 5771 5769 5768 5767 5765 5764 5763 5761 5760 5759 5757 5756 5755 5753 5752 5752 5751 5749 5748 5747 5746 5745 5744 5744 5743 5742 5741 5740 5739 5739 5738 5737 5737 5736 5736 5735 5734
5785 5782 5780 5777 5774 5771 5769 5766 5765 5763 5762 5760 5759 5757 5756 5755 5754 5752 5751 5750 5749 5748 5747 5746 5745 5744 5743 5742 5741 5741 5740 5739 5738 5737 5736 5736 5736 5735 5734 5734 5733 5732 5732
5781 5779 5777 5774 5771 5769 5766 5764 5762 5760 5759 5757 5755 5753 5752 5751 5750 5749 5748 5747 5746 5745 5744 5743 5742 5741 5740 5739 5738 5738 5737 5736 5736 5735 5734 5733 5733 5733 5732 5732 5731 5730 5730
5776 5775 5772 5771 5768 5765 5763 5761 5759 5757 5756 5754 5752 5750 5748 5747 5746 5745 5744 5743 5743 5742 5740 5739 5739 5738 5737 5736 5735 5735 5734 5734 5733 5732 5731 5731 5731 5731 5730 5729 5729 5728 5727
5773 5772 5769 5767 5765 5762 5760 5757 5756 5754 5752 5751 5749 5747 5745 5743 5742 5741 5740 5740 5739 5738 5737 5736 5735 5734 5733 5733 5732 5731 5731 5731 5730 5730 5729 5729 5729 5728 5728 5727 5726 5725 5725
5769 5766 5765 5763 5761 5759 5756 5754 5752 5750 5748 5747 5745 5743 5741 5740 5739 5738 5737 5736 5735 5735 5734 5733 5732 5731 5730 5729 5729 5728 5728 5727 5727 5726 5726 5726 5726 5726 5726 5725 5723 5723 5722
5763 5761 5759 5758 5756 5754 5752 5750 5748 5747 5744 5743 5741 5740 5738 5736 5735 5735 5733 5732 5731 5730 5730 5729 5728 5728 5727 5726 5725 5725 5725 5724 5723 5723 5723 5724 5724 5724 5723 5722 5721 5721 5720
5758 5757 5756 5754 5752 5750 5748 5746 5744 5743 5741 5739 5737 5736 5734 5733 5732 5731 5730 5729 5728 5727 5726 5725 5725 5724 5723 5722 5722 5722 5721 5720 5719 5719 5719 5720 5720 5720 5720 5720 5719 5718 5718
5752 5752 5752 5750 5748 5746 5744 5742 5741 5739 5738 5736 5734 5732 5730 5729 5728 5726 5726 5725 5725 5724 5722 5721 5721 5719 5718 5717 5717 5717 5717 5716 5716 5715 5716 5717 5717 5717 5717 5717 5716 5715 5715
5750 5749 5748 5746 5744 5742 5740 5739 5737 5736 5734 5732 5730 5728 5726 5725 5723 5722 5722 5721 5720 5720 5718 5717 5716 5715 5714 5713 5713 5713 5712 5712 5712 5712 5712 5713 5713 5713 5713 5713 5713 5712 5712
5745 5744 5743 5741 5739 5737 5736 5735 5734 5732 5730 5728 5726 5724 5722 5720 5720 5719 5717 5717 5716 5715 5714 5712 5711 5711 5710 5709 5709 5709 5708 5708 5708 5708 5708 5708 5708 5708 5709 5709 5709 5709 5708
5741 5739 5738 5737 5734 5732 5731 5731 5730 5728 5726 5725 5723 5721 5719 5717 5716 5715 5713 5713 5712 5711 5710 5708 5708 5707 5706 5705 5704 5704 5704 5704 5703 5703 5704 5704 5704 5704 5704 5705 5705 5705 5705
5737 5736 5734 5732 5730 5728 5727 5726 5726 5724 5723 5721 5719 5718 5716 5714 5712 5711 5710 5709 5708 5707 5706 5704 5703 5702 5701 5701 5700 5700 5699 5699 5699 5699 5699 5699 5699 5699 5699 5700 5701 5701 5701
5735 5734 5731 5729 5727 5725 5724 5723 5723 5721 5720 5717 5716 5714 5712 5711 5708 5707 5706 5705 5704 5703 5702 5700 5700 5698 5697 5696 5695 5695 5695 5694 5694 5694 5693 5694 5694 5694 5694 5695 5696 5697 5698
5732 5730 5728 5728 5725 5723 5721 5720 5719 5718 5716 5714 5712 5710 5709 5707 5705 5703 5702 5701 5700 5699 5698 5697 5695 5693 5691 5690 5690 5690 5690 5689 5689 5688 5688 5688 5688 5688 5689 5690 5691 5691 5692
5730 5728 5726 5724 5722 5720 5717 5716 5715 5713 5712 5710 5709 5707 5706 5703 5701 5699 5698 5697 5695 5694 5692 5693 5690 5689 5687 5685 5685 5684 5684 5683 5683 5683 5683 5682 5683 5683 5683 5684 5685 5686 5687
5727 5725 5723 5721 5719 5717 5714 5712 5709 5708 5707 5705 5704 5703 5702 5700 5697 5695 5693 5692 5690 5688 5686 5685 5684 5684 5683 5681 5680 5679 5678 5678 5678 5678 5678 5678 5678 5678 5678 5679 5679 5680 5681
5724 5722 5720 5717 5715 5713 5710 5707 5704 5702 5701 5700 5700 5699 5697 5695 5693 5691 5689 5687 5686 5683 5682 5680 5680 5678 5676 5675 5673 5671 5672 5673 5673 5673 5673 5672 5673 5673 5673 5673 5674 5675 5676
5722 5719 5717 5714 5712 5710 5708 5705 5702 5700 5698 5696 5696 5695 5694 5692 5689 5687 5685 5683 5682 5680 5677 5676 5675 5673 5671 5670 5667 5664 5663 5665 5667 5669 5667 5667 5668 5667 5668 5668 5669 5670 5670
5719 5717 5715 5712 5709 5707 5705 5702 5699 5696 5694 5692 5691 5690 5689 5688 5687 5684 5682 5680 5678 5677 5674 5672 5672 5670 5666 5664 5663 5660 5656 5655 5657 5660 5661 5662 5662 5662 5663 5663 5664 5664 5665
5718 5716 5713 5710 5707 5704 5702 5699 5695 5692 5689 5688 5687 5686 5686 5686 5684 5682 5680 5677 5675 5672 5671 5670 5669 5666 5664 5661 5658 5656 5655 5654 5651 5651 5654 5655 5656 5657 5657 5658 5658 5659 5659
5716 5713 5709 5707 5704 5702 5699 5696 5693 5690 5687 5685 5684 5683 5683 5682 5681 5679 5677 5675 5672 5670 5668 5667 5665 5662 5660 5658 5655 5652 5650 5648 5647 5645 5646 5648 5650 5651 5652 5652 5652 5652 5653
5713 5710 5707 5703 5701 5699 5696 5694 5691 5688 5685 5682 5680 5679 5678 5677 5676 5675 5673 5672 5670 5667 5665 5663 5662 5659 5656 5654 5652 5649 5647 5644 5643 5641 5641 5641 5642 5645 5646 5646 5646 5647 5647